| time (UTC) | temp C | wind direction | speed KPH | gust KPH | rain 1hr cm | rain 24hr cm | rain mn cm | humidity % | barometer mb |
| 20260502203024 | 8 | 312 | 3.2 | 14.5 | 0.00 | 0.00 | 0.00 | 45 | 1016.1 |
| 20260502201505 | 8 | 260 | 1.6 | 16.1 | 0.00 | 0.00 | 0.00 | 45 | 1016.3 |
| 20260502194514 | 7 | 254 | 4.8 | 16.1 | 0.00 | 0.00 | 0.00 | 47 | 1016.6 |
| 20260502193003 | 8 | 213 | 3.2 | 22.5 | 0.00 | 0.00 | 0.00 | 47 | 1016.7 |
| 20260502191503 | 8 | 291 | 4.8 | 17.7 | 0.00 | 0.00 | 0.00 | 46 | 1016.8 |
| 20260502190007 | 8 | 266 | 4.8 | 20.9 | 0.00 | 0.00 | 0.00 | 47 | 1016.9 |
| 20260502184514 | 8 | 310 | 6.4 | 16.1 | 0.00 | 0.00 | 0.00 | 44 | 1016.9 |
| 20260502183016 | 8 | 259 | 4.8 | 12.9 | 0.00 | 0.00 | 0.00 | 44 | 1016.9 |
| 20260502181503 | 8 | 302 | 3.2 | 9.7 | 0.00 | 0.00 | 0.00 | 45 | 1017.2 |
| 20260502163014 | 7 | 309 | 3.2 | 11.3 | 0.00 | 0.00 | 0.00 | 49 | 1017.9 |
| 20260502161517 | 7 | 360 | 4.8 | 17.7 | 0.00 | 0.00 | 0.00 | 47 | 1017.9 |
| 20260502151513 | 5 | 303 | 1.6 | 16.1 | 0.00 | 0.00 | 0.00 | 53 | 1017.9 |
| 20260502123020 | 3 | 306 | 3.2 | 14.5 | 0.00 | 0.00 | 0.00 | 68 | 1018.0 |
| 20260502121527 | 2 | 360 | 8.0 | 16.1 | 0.00 | 0.00 | 0.00 | 69 | 1017.9 |
| 20260502114515 | 2 | 350 | 3.2 | 6.4 | 0.00 | 0.00 | 0.00 | 71 | 1017.6 |
| 20260502113020 | 1 | 304 | 3.2 | 6.4 | 0.00 | 0.00 | 0.00 | 74 | 1017.5 |
| 20260502111523 | 0 | 319 | 0.0 | 4.8 | 0.00 | 0.00 | 0.00 | 75 | 1017.4 |
| 20260502110026 | 0 | 329 | 1.6 | 6.4 | 0.00 | 0.00 | 0.00 | 75 | 1017.4 |
| 20260502104512 | 0 | 13 | 0.0 | 4.8 | 0.00 | 0.00 | 0.00 | 75 | 1017.3 |
| 20260502103017 | 0 | 325 | 0.0 | 4.8 | 0.00 | 0.00 | 0.00 | 74 | 1017.3 |
| 20260502091518 | 1 | 336 | 0.0 | 4.8 | 0.00 | 0.00 | 0.00 | 71 | 1016.8 |
| 20260502071511 | 3 | 306 | 1.6 | 4.8 | 0.00 | 0.00 | 0.00 | 63 | 1016.3 |
| 20260502070020 | 3 | 5 | 6.4 | 12.9 | 0.00 | 0.00 | 0.00 | 61 | 1016.4 |
| 20260502064522 | 3 | 331 | 0.0 | 4.8 | 0.00 | 0.00 | 0.00 | 64 | 1016.6 |
| 20260502063006 | 3 | 340 | 0.0 | 4.8 | 0.00 | 0.00 | 0.00 | 64 | 1016.6 |
| 20260502061508 | 3 | 355 | 3.2 | 11.3 | 0.00 | 0.00 | 0.00 | 62 | 1016.7 |
| 20260502060013 | 4 | 327 | 0.0 | 8.0 | 0.00 | 0.00 | 0.00 | 63 | 1016.8 |
| 20260502054518 | 4 | 9 | 4.8 | 8.0 | 0.00 | 0.00 | 0.00 | 62 | 1016.8 |
| 20260502053025 | 4 | 5 | 4.8 | 11.3 | 0.00 | 0.00 | 0.00 | 63 | 1016.8 |
| 20260502051519 | 4 | 360 | 1.6 | 16.1 | 0.00 | 0.00 | 0.00 | 63 | 1016.9 |
| 20260502050011 | 4 | 16 | 6.4 | 14.5 | 0.00 | 0.00 | 0.00 | 63 | 1016.8 |
| 20260502044518 | 4 | 338 | 0.0 | 4.8 | 0.00 | 0.00 | 0.00 | 68 | 1016.7 |
| 20260502043022 | 4 | 11 | 3.2 | 8.0 | 0.00 | 0.00 | 0.00 | 65 | 1016.5 |
| 20260502041523 | 4 | 17 | 3.2 | 12.9 | 0.00 | 0.00 | 0.00 | 66 | 1016.4 |
| 20260502040009 | 4 | 5 | 4.8 | 17.7 | 0.00 | 0.00 | 0.00 | 66 | 1016.3 |
| 20260502034514 | 4 | 29 | 4.8 | 14.5 | 0.00 | 0.00 | 0.00 | 70 | 1016.1 |
| 20260502033018 | 3 | 282 | 0.0 | 4.8 | 0.00 | 0.00 | 0.00 | 72 | 1016.1 |
| 20260502031523 | 4 | 255 | 3.2 | 12.9 | 0.00 | 0.00 | 0.00 | 72 | 1016.0 |
| 20260502030026 | 4 | 271 | 0.0 | 0.0 | 0.00 | 0.00 | 0.00 | 72 | 1015.9 |
| 20260502023016 | 5 | 276 | 0.0 | 8.0 | 0.00 | 0.00 | 0.00 | 67 | 1016.1 |
| 20260502021520 | 5 | 355 | 1.6 | 9.7 | 0.00 | 0.00 | 0.00 | 67 | 1016.0 |
| 20260502020024 | 5 | 322 | 1.6 | 6.4 | 0.00 | 0.00 | 0.00 | 68 | 1015.9 |
| 20260502014533 | 5 | 303 | 0.0 | 9.7 | 0.00 | 0.00 | 0.00 | 67 | 1015.8 |
| 20260502013014 | 5 | 325 | 3.2 | 11.3 | 0.00 | 0.00 | 0.00 | 67 | 1015.7 |
| 20260502011519 | 5 | 340 | 0.0 | 12.9 | 0.00 | 0.00 | 0.00 | 66 | 1015.5 |
| 20260502010022 | 5 | 291 | 0.0 | 12.9 | 0.00 | 0.00 | 0.00 | 67 | 1015.4 |
| 20260502003029 | 5 | 338 | 0.0 | 6.4 | 0.00 | 0.00 | 0.00 | 67 | 1015.2 |
| 20260502001515 | 6 | 335 | 1.6 | 6.4 | 0.00 | 0.00 | 0.00 | 66 | 1015.2 |
| 20260501234525 | 6 | 57 | 1.6 | 8.0 | 0.00 | 0.00 | 0.00 | 64 | 1014.9 |
| 20260501233026 | 6 | 293 | 0.0 | 8.0 | 0.00 | 0.00 | 0.00 | 66 | 1014.7 |
| 20260501231503 | 6 | 355 | 4.8 | 12.9 | 0.00 | 0.00 | 0.00 | 63 | 1014.7 |
| 20260501230004 | 6 | 308 | 3.2 | 14.5 | 0.00 | 0.00 | 0.00 | 62 | 1014.6 |
| 20260501224506 | 7 | 344 | 1.6 | 12.9 | 0.00 | 0.00 | 0.00 | 63 | 1014.6 |
| 20260501223003 | 7 | 326 | 6.4 | 17.7 | 0.00 | 0.00 | 0.00 | 61 | 1014.6 |
| 20260501221505 | 7 | 9 | 6.4 | 19.3 | 0.00 | 0.00 | 0.00 | 60 | 1014.4 |
| 20260501220004 | 7 | 267 | 1.6 | 12.9 | 0.00 | 0.00 | 0.00 | 63 | 1014.4 |
| 20260501214509 | 7 | 336 | 4.8 | 12.9 | 0.00 | 0.00 | 0.00 | 60 | 1014.4 |
| 20260501213005 | 7 | 286 | 3.2 | 11.3 | 0.00 | 0.00 | 0.00 | 59 | 1014.2 |
| 20260501211512 | 8 | 338 | 3.2 | 14.5 | 0.00 | 0.00 | 0.00 | 58 | 1014.0 |
| 20260501210005 | 8 | 288 | 1.6 | 9.7 | 0.00 | 0.00 | 0.00 | 58 | 1013.8 |
| 20260501204505 | 9 | 257 | 3.2 | 16.1 | 0.00 | 0.00 | 0.00 | 57 | 1013.8 |